Orbital Elements at Epoch 2459000.5 (2020-May-31.0) TDB
Reference: JPL 1 (heliocentric ecliptic J2000)
Element | Value | Uncertainty (1-sigma) | Units |
e | .6365999268852065 | 0.00067547 | |
a | 2.269112515758198 | 0.0039939 | au |
q | .8245956541322222 | 8.1365e-05 | au |
i | 1.396768163768118 | 0.0010715 | deg |
node | 231.5012669137386 | 0.00020795 | deg |
peri | 234.9129371692841 | 0.00094275 | deg |
M | 152.0803314336051 | 0.39696 | deg |
tp | 2458473.084336817434 (2018-Dec-20.58433682) | 0.015824 | TDB |
period | 1248.482541798093 3.42 | 3.2962 0.009025 | d yr |
n | .2883500473154553 | 0.00076129 | deg/d |
Q | 3.713629377384174 | 0.0065364 | au |
|
| | Orbit Determination Parameters
Additional Information
|